Hawarden, United Kingdom

8:01 AM BST on April 27, 2018 (GMT +0100)
Hawarden

Weather History for EGNR - January, 2014

Change the Weather History Date:

Wednesday, January 29, 2014

  Actual Average (EGGP) Record (EGGP)
Temperature  
Mean Temperature 42 °F -  
Max Temperature 44 °F 45 °F 113 °F (1998)
Min Temperature 39 °F 36 °F 24 °F (2011)
Degree Days  
Heating Degree Days 24    
Moisture  
Dew Point 38 °F    
Average Humidity 83    
Maximum Humidity 97    
Minimum Humidity 70    
Precipitation  
Precipitation 0.01 in - - ()
Sea Level Pressure  
Sea Level Pressure 29.41 in    
Wind  
Wind Speed 10 mph ()    
Max Wind Speed 15 mph    
Max Gust Speed -    
Visibility 8.8 miles    
Events Rain    
Averages and records for this station are not official NWS values.
T = Trace of Precipitation, MM = Missing Value Source: Averaged Metar Reports

Daily Weather History Graph

Daily Weather History Graph

Search for Another Location

Airport or City:

Astronomy

Jan. 29, 2014 Rise Set
Actual Time 8:00 AM GMT 4:49 PM GMT
Civil Twilight 7:22 AM GMT 5:28 PM GMT
Nautical Twilight 6:40 AM GMT 6:10 PM GMT
Astronomical Twilight 5:59 AM GMT 6:51 PM GMT
Moon 6:27 AM GMT (1/29) 3:31 PM GMT (1/29)
Length of Visible Light 10h 05m
Length of Day
8h 48m
Waning Crescent, 3% of the Moon is Illuminated
Jan 29
Waning Crescent
Jan 30
New
Feb 6
First Quarter
Feb 14
Full
Feb 22
Last Quarter

Hourly Weather History & Observations

Time (GMT) Temp. Windchill Dew Point Humidity Pressure Visibility Wind Dir Wind Speed Gust Speed Precip Events Conditions
12:00 AM 43 °F - 41 °F 90% 29.09 in 11 mi ESE 11.5 mph - - Rain Rain
1:00 AM 42 °F - 41 °F 97% 29.12 in 7 mi ESE 10.4 mph - - Rain Rain
2:00 AM 42 °F - 41 °F 94% 29.15 in 4 mi ESE 11.5 mph - - Rain Rain Showers
3:00 AM 42 °F - 40 °F 91% 29.18 in 6 mi ESE 11.5 mph - - Rain Light Drizzle
4:00 AM 42 °F - 40 °F 91% 29.20 in 14 mi ESE 12.7 mph - - Rain Rain
5:00 AM 42 °F - 40 °F 88% 29.23 in 16 mi ESE 10.4 mph - -   Mostly Cloudy
6:00 AM 42 °F - 39 °F 87% 29.26 in 28 mi ESE 15.0 mph - - Rain Rain
6:20 AM 42.8 °F 37.0 °F 39.2 °F 87% 29.27 in 6.2 mi ESE 10.4 mph - N/A   Mostly Cloudy
6:50 AM 42.8 °F 36.6 °F 39.2 °F 87% 29.27 in 6.2 mi ESE 11.5 mph - N/A   Scattered Clouds
7:00 AM 42 °F - 40 °F 88% 29.29 in 16 mi ESE 12.7 mph - -   Partly Cloudy
7:20 AM 42.8 °F 37.0 °F 39.2 °F 87% 29.30 in 6.2 mi East 10.4 mph - N/A   Scattered Clouds
7:50 AM 42.8 °F 37.0 °F 39.2 °F 87% 29.30 in 6.2 mi ESE 10.4 mph - N/A   Mostly Cloudy
8:00 AM 43 °F - 39 °F 81% 29.32 in 19 mi ESE 13.8 mph - -   Mostly Cloudy
8:20 AM 42.8 °F 37.5 °F 39.2 °F 87% 29.33 in 6.2 mi ESE 9.2 mph - N/A   Scattered Clouds
9:00 AM 43 °F - 39 °F 82% 29.36 in 19 mi ESE 9.2 mph - -   Mostly Cloudy
9:20 AM 44.6 °F 39.2 °F 39.2 °F 81% 29.36 in 6.2 mi East 10.4 mph - N/A   Scattered Clouds
9:50 AM 42.8 °F 37.5 °F 39.2 °F 87% 29.39 in 6.2 mi ESE 9.2 mph - N/A   Scattered Clouds
10:00 AM 43 °F - 39 °F 81% 29.39 in 19 mi ESE 12.7 mph - -   Mostly Cloudy
10:20 AM 44.6 °F 38.8 °F 39.2 °F 81% 29.39 in 6.2 mi ESE 11.5 mph - N/A   Scattered Clouds
10:50 AM 44.6 °F 38.4 °F 41.0 °F 87% 29.39 in 6.2 mi East 12.7 mph - N/A   Scattered Clouds
11:00 AM 43 °F - 40 °F 85% 29.41 in 13 mi East 10.4 mph - -   Light Haze
11:20 AM 44.6 °F 40.2 °F 39.2 °F 81% 29.42 in 6.2 mi East 8.1 mph - N/A   Mostly Cloudy
11:50 AM 44.6 °F 39.2 °F 41.0 °F 87% 29.42 in 6.2 mi East 10.4 mph - N/A   Mostly Cloudy
12:00 PM 44 °F - 40 °F 81% 29.42 in 12 mi East 10.4 mph - - Rain Light Rain Showers
12:50 PM 44.6 °F 40.2 °F 41.0 °F 87% 29.42 in 6.2 mi East 8.1 mph - N/A   Mostly Cloudy
1:00 PM 44 °F - 40 °F 79% 29.44 in 19 mi East 9.2 mph - - Rain Rain
1:20 PM 44.6 °F 40.2 °F 39.2 °F 81% 29.42 in 6.2 mi East 8.1 mph - N/A   Mostly Cloudy
1:50 PM 44.6 °F 37.8 °F 37.4 °F 76% 29.44 in 6.2 mi ESE 15.0 mph - N/A   Mostly Cloudy
2:00 PM 44 °F - 39 °F 75% 29.45 in 22 mi East 11.5 mph - -   Mostly Cloudy
2:20 PM 44.6 °F 38.1 °F 37.4 °F 76% 29.44 in 6.2 mi East 13.8 mph - N/A   Mostly Cloudy
2:50 PM 42.8 °F 35.8 °F 35.6 °F 76% 29.44 in 6.2 mi East 13.8 mph - N/A   Mostly Cloudy
3:00 PM 43 °F - 38 °F 75% 29.47 in 19 mi East 11.5 mph - -   Overcast
3:20 PM 44.6 °F 39.7 °F 39.2 °F 81% 29.47 in 6.2 mi East 9.2 mph - N/A Rain Light Rain
3:50 PM 44.6 °F 39.7 °F 39.2 °F 81% 29.47 in 6.2 mi East 9.2 mph - N/A Rain Light Rain
4:00 PM 42 °F - 38 °F 82% 29.49 in 10 mi East 11.5 mph - - Rain Light Rain
4:20 PM 42.8 °F 38.0 °F 39.2 °F 87% 29.47 in 6.2 mi East 8.1 mph - N/A   Mostly Cloudy
4:50 PM 42.8 °F 37.0 °F 37.4 °F 81% 29.50 in 6.2 mi ENE 10.4 mph - N/A   Mostly Cloudy
5:00 PM 42 °F - 37 °F 77% 29.51 in 12 mi ENE 12.7 mph - - Rain Rain
5:20 PM 42.8 °F 37.0 °F 37.4 °F 81% 29.50 in 6.2 mi ENE 10.4 mph - N/A Rain Light Rain
5:50 PM 39.2 °F 32.0 °F 35.6 °F 87% 29.53 in 6.2 mi ENE 11.5 mph - N/A Rain Light Rain
6:00 PM 40 °F - 36 °F 82% 29.55 in 8 mi ENE 11.5 mph - - Rain Rain
6:50 PM 39.2 °F 33.6 °F 35.6 °F 87% 29.56 in 6.2 mi East 8.1 mph - N/A Rain Light Rain
7:00 PM 40 °F - 36 °F 82% 29.57 in 7 mi ENE 8.1 mph - - Rain Light Rain Showers
7:20 PM 41.0 °F 35.2 °F 37.4 °F 87% 29.56 in 6.2 mi East 9.2 mph - N/A Rain Light Rain
7:50 PM 41.0 °F 34.7 °F 37.4 °F 87% 29.56 in 6.2 mi East 10.4 mph - N/A   Mostly Cloudy
8:00 PM 40 °F - 36 °F 80% 29.59 in 9 mi ENE 10.4 mph - - Rain Rain
9:00 PM 40 °F - 35 °F 75% 29.61 in 6 mi ENE 9.2 mph - -   Mostly Cloudy
10:00 PM 39 °F - 33 °F 73% 29.63 in 6 mi East 8.1 mph - -   Light Haze
11:00 PM 39 °F - 33 °F 70% 29.65 in 6 mi East 6.9 mph - -   Light Haze